User: anonymous   Login
Location: West Cummington
(42.4920°N, 72.9680°W)
Time: 20:59:59
(UTC-05:00)
Language:

Cosmos 841 Rocket - Orbit

View from above orbital plane
View from above orbital plane
View from above satellite
View from above satellite

Ground track
Ground track

The orbit data is extracted from the following two-line orbital elements,

1 09023U 76069B   16038.88449566  .00000095  00000-0  39057-4 0  9992
2 09023  74.0440 290.8154 0018496 221.2562 138.7196 14.39461832 73558
Epoch (UTC): 07 February 2016 21:13:40
Eccentricity: 0.0018496
inclination: 74.0440°
perigee height: 747 km
apogee height: 773 km
right ascension of ascending node: 290.8154°
argument of perigee: 221.2562°
revolutions per day: 14.39461832
mean anomaly at epoch: 138.7196°
orbit number at epoch: 7355

The dashed part of the orbit path shows where the satellite is in the earth's shadow,  

DLR